Time[GMT],air_temperature[C](-3m),wind_speed[m/s](-4m),wind_gust[m/s](-4m),visibility[m](-3m),barometric_pressure[millibars](-3m),wind_2_direction[degrees_true](-4m),wind_2_gust[m/s](-4m),wind_2_gust_1s[m/s](-4m),wind_2_min[m/s](-4m),wind_2_percent_good[1](-4m),wind_2_speed[m/s](-4m),wind_direction[degrees_true](-4m),wind_gust_1s[m/s](-4m),wind_min[m/s](-4m)
2018-09-29 02:00,13.2,,,2961,1016.52,196.70,1.82,2.60,0.48,1.00,1.46,,,
2018-09-29 02:10,13.2,,,2961,1016.46,203.40,2.10,2.84,0.44,1.00,1.63,,,
2018-09-29 02:20,13.2,,,2962,1016.40,193.70,2.04,2.69,0.60,1.00,1.67,,,
2018-09-29 02:30,13.2,,,2962,1016.34,201.60,1.98,2.75,0.72,1.00,1.72,,,
2018-09-29 02:40,13.2,,,2961,1016.46,218.40,2.58,3.40,0.84,1.00,1.87,,,
2018-09-29 02:50,13.2,,,2962,1016.59,226.20,2.77,3.32,1.04,1.00,2.20,,,
2018-09-29 03:00,13.3,,,2962,1016.52,232.40,3.06,3.86,1.43,1.00,2.59,,,
2018-09-29 03:10,13.5,,,2961,1016.46,240.00,3.32,3.99,0.91,1.00,2.72,,,
2018-09-29 03:20,13.6,,,2962,1016.40,239.40,3.19,4.01,1.43,1.00,2.64,,,
2018-09-29 03:30,13.6,,,2962,1016.28,234.40,3.28,4.03,1.56,1.00,2.78,,,
2018-09-29 03:40,13.7,,,2962,1016.34,237.10,3.66,4.27,1.80,1.00,3.04,,,
2018-09-29 03:50,13.8,,,2962,1016.40,247.00,3.61,4.40,1.04,1.00,3.01,,,
2018-09-29 04:00,13.8,,,2962,1016.46,252.00,3.94,4.57,1.60,1.00,3.10,,,
2018-09-29 04:10,13.9,,,2961,1016.34,254.80,3.48,4.68,1.20,1.00,2.90,,,
2018-09-29 04:20,13.9,,,2962,1016.22,251.00,4.30,5.15,1.28,1.00,3.30,,,
2018-09-29 04:30,14.0,,,2962,1016.16,245.50,3.71,4.44,1.67,1.00,3.03,,,
2018-09-29 04:40,14.0,,,2961,1015.97,245.60,3.78,4.61,1.64,1.00,3.25,,,
2018-09-29 04:50,14.0,,,2961,1015.91,235.70,4.09,4.87,2.22,1.00,3.34,,,
2018-09-29 05:00,14.1,,,2961,1015.85,231.20,3.83,4.76,1.92,1.00,3.18,,,
2018-09-29 05:10,14.1,,,2961,1015.85,231.70,3.77,4.31,1.87,1.00,3.06,,,
2018-09-29 05:20,14.1,,,2962,1015.85,235.40,4.02,4.65,1.74,1.00,3.33,,,
2018-09-29 05:30,14.1,,,2962,1015.67,227.00,3.65,4.95,1.57,1.00,3.04,,,
2018-09-29 05:40,14.1,,,2961,1015.67,229.40,3.73,4.23,1.29,1.00,2.93,,,
2018-09-29 05:50,14.1,,,2961,1015.60,231.50,3.56,4.41,1.37,1.00,2.91,,,
2018-09-29 06:00,14.2,,,2961,1015.54,234.70,3.65,4.64,1.52,1.00,3.00,,,
2018-09-29 06:10,14.2,,,2961,1015.42,218.20,3.59,4.23,1.70,1.00,3.09,,,
2018-09-29 06:20,14.1,,,2962,1015.24,205.90,3.33,3.85,1.55,1.00,2.79,,,
2018-09-29 06:30,14.1,,,2962,1015.36,214.90,3.45,4.62,1.46,1.00,2.96,,,
2018-09-29 06:40,14.1,,,2961,1015.36,228.10,4.13,5.39,2.10,1.00,3.52,,,
2018-09-29 06:50,14.2,,,2961,1015.42,233.50,4.42,5.41,1.87,1.00,3.64,,,
2018-09-29 07:00,14.2,,,2961,1015.18,217.70,4.31,5.14,1.47,1.00,3.35,,,
2018-09-29 07:10,14.2,,,2961,1015.05,211.60,3.96,4.92,1.96,1.00,3.43,,,
2018-09-29 07:20,14.1,,,2962,1015.18,208.30,3.93,4.73,1.60,1.00,3.22,,,
2018-09-29 07:30,14.1,,,2962,1015.30,206.50,3.56,4.25,1.66,1.00,3.00,,,
2018-09-29 07:40,14.1,,,2961,1015.42,212.70,3.28,4.17,1.23,1.00,2.68,,,
2018-09-29 07:50,14.1,,,2961,1015.48,213.00,3.46,4.26,1.65,1.00,3.01,,,
2018-09-29 08:00,14.1,,,2961,1015.73,223.90,3.81,4.66,1.65,1.00,3.14,,,
2018-09-29 08:10,14.2,,,2961,1015.85,232.90,3.89,5.32,1.65,1.00,3.49,,,
2018-09-29 08:20,14.2,,,2962,1015.91,232.90,4.27,5.24,1.63,1.00,3.43,,,
2018-09-29 08:30,14.3,,,2962,1016.10,237.00,4.81,5.46,2.14,1.00,3.96,,,
2018-09-29 08:40,14.3,,,2962,1016.22,239.20,4.64,5.73,1.70,1.00,3.74,,,
2018-09-29 08:50,14.3,,,2961,1016.22,247.20,4.92,6.15,2.24,1.00,4.05,,,
2018-09-29 09:00,14.2,,,2961,1016.28,235.60,4.58,6.01,2.01,1.00,3.82,,,
2018-09-29 09:10,14.2,,,2961,1016.40,235.20,3.42,4.66,0.79,1.00,2.80,,,
2018-09-29 09:20,14.1,,,2962,1016.46,236.40,3.67,4.82,1.45,1.00,2.93,,,
2018-09-29 09:30,14.1,,,2962,1016.52,230.80,3.52,4.78,0.93,1.00,2.75,,,
2018-09-29 09:40,14.1,,,2961,1016.59,232.40,3.83,4.64,0.71,1.00,2.93,,,
2018-09-29 09:50,14.0,,,2962,1016.59,237.40,3.07,3.91,0.86,1.00,2.45,,,
2018-09-29 10:00,14.0,,,2962,1016.52,231.10,3.21,4.06,0.42,1.00,2.15,,,
2018-09-29 10:10,13.9,,,2961,1016.71,237.10,3.38,4.59,0.51,1.00,2.39,,,
2018-09-29 10:20,13.9,,,2962,1016.83,234.60,3.21,4.46,0.30,1.00,2.38,,,
2018-09-29 10:30,13.9,,,2962,1016.83,241.00,2.99,4.26,0.39,1.00,2.33,,,
2018-09-29 10:40,14.0,,,2962,1016.95,225.80,3.02,4.37,0.51,1.00,2.40,,,
2018-09-29 10:50,14.0,,,2958,1017.01,223.20,2.46,4.04,0.34,1.00,1.99,,,
2018-09-29 11:00,14.1,,,2961,1017.14,235.50,2.94,3.80,0.79,1.00,2.30,,,
2018-09-29 11:10,14.2,,,2862,1017.14,239.90,3.41,4.27,0.83,1.00,2.65,,,
2018-09-29 11:20,14.2,,,2962,1017.14,241.80,3.73,4.75,1.39,1.00,3.15,,,
2018-09-29 11:30,14.2,,,2909,1017.20,241.10,3.67,4.34,1.09,1.00,2.87,,,
2018-09-29 11:40,14.2,,,2925,1017.57,261.00,5.22,6.34,2.27,1.00,4.09,,,
2018-09-29 11:50,14.2,,,2918,1017.81,265.10,6.20,6.92,3.08,1.00,4.99,,,
2018-09-29 12:00,14.2,,,2962,1017.87,265.00,5.81,6.94,2.94,1.00,4.74,,,
2018-09-29 12:10,14.2,,,2942,1017.81,264.60,5.34,6.19,2.41,1.00,4.36,,,
2018-09-29 12:20,14.1,,,2913,1018.06,267.30,5.42,6.35,3.03,1.00,4.70,,,
2018-09-29 12:30,14.0,,,2962,1018.30,298.60,7.56,8.65,4.17,1.00,6.23,,,
2018-09-29 12:40,13.6,,,2961,1018.36,310.10,8.38,9.25,2.43,1.00,6.14,,,
2018-09-29 12:50,13.6,,,2906,1018.43,288.40,5.39,6.07,2.23,1.00,4.27,,,
2018-09-29 13:00,13.7,,,2898,1018.43,280.60,4.78,5.86,2.38,1.00,4.01,,,
2018-09-29 13:10,13.8,,,2961,1018.49,288.10,4.99,5.83,2.31,1.00,4.00,,,
2018-09-29 13:20,13.8,,,2937,1018.61,290.50,5.36,6.26,2.28,1.00,4.40,,,
2018-09-29 13:30,14.0,,,2940,1018.61,292.00,4.95,6.05,2.54,1.00,4.05,,,
2018-09-29 13:40,14.1,,,2961,1018.55,303.10,5.31,5.93,2.34,1.00,4.24,,,
2018-09-29 13:50,14.3,,,2961,1018.36,310.50,4.17,5.14,1.56,1.00,3.41,,,
2018-09-29 14:00,14.3,,,2957,1018.30,313.40,3.28,4.40,1.32,1.00,2.64,,,
2018-09-29 14:10,14.4,,,2961,1018.24,324.60,3.54,4.45,1.29,1.00,2.70,,,
2018-09-29 14:20,14.4,,,2961,1018.24,323.90,4.00,4.70,1.80,1.00,3.41,,,
2018-09-29 14:30,14.5,,,2961,1018.30,344.30,3.21,4.36,1.32,1.00,2.48,,,
2018-09-29 14:40,14.7,,,2961,1018.30,346.06,2.42,3.03,0.77,1.00,1.90,,,
2018-09-29 14:50,14.6,,,2962,1018.49,345.77,4.07,4.58,1.49,1.00,3.07,,,
2018-09-29 15:00,14.8,,,2961,1018.49,337.90,4.30,4.98,1.79,1.00,3.44,,,
2018-09-29 15:10,14.7,,,2961,1018.49,342.30,3.80,4.45,1.77,1.00,3.14,,,
2018-09-29 15:20,14.7,,,2961,1018.49,349.96,3.83,4.09,1.42,1.00,2.67,,,
2018-09-29 15:30,14.7,,,2961,1018.43,341.60,2.74,3.66,0.89,1.00,2.17,,,
2018-09-29 15:40,14.9,,,2961,1018.49,323.30,3.10,3.77,0.61,1.00,2.18,,,
2018-09-29 15:50,15.2,,,2961,1018.49,326.60,3.25,3.89,1.34,1.00,2.71,,,
2018-09-29 16:00,15.2,,,2961,1018.49,315.20,2.77,3.39,0.92,1.00,2.12,,,
2018-09-29 16:10,15.6,,,2961,1018.36,335.30,2.94,6.00,0.48,1.00,1.73,,,
2018-09-29 16:20,15.7,,,2961,1018.36,0.03,2.08,2.88,0.52,1.00,1.57,,,
2018-09-29 16:30,16.0,,,2961,1018.36,318.90,2.14,2.92,0.29,1.00,1.50,,,
2018-09-29 16:40,16.0,,,2961,1018.36,321.80,3.06,3.60,0.50,1.00,1.97,,,
2018-09-29 16:50,16.3,,,2961,1018.30,311.20,4.67,5.42,1.07,1.00,3.59,,,
2018-09-29 17:00,16.1,,,2961,1018.30,312.50,5.05,5.67,2.00,1.00,4.13,,,
2018-09-29 17:10,16.2,,,2961,1018.18,319.20,5.09,5.87,2.29,1.00,3.83,,,
2018-09-29 17:20,16.2,,,2961,1018.12,323.00,3.73,5.09,1.84,1.00,3.16,,,
2018-09-29 17:30,16.2,,,2961,1018.00,316.20,3.95,4.52,1.57,1.00,3.03,,,
2018-09-29 17:40,16.4,,,2961,1017.93,311.20,3.70,4.73,0.63,1.00,2.99,,,
2018-09-29 17:50,16.3,,,2961,1017.93,311.80,3.31,4.29,1.01,1.00,2.73,,,
2018-09-29 18:00,16.3,,,2961,1018.00,327.20,2.27,3.44,0.10,1.00,1.44,,,
2018-09-29 18:10,16.7,,,2960,1018.00,304.30,2.09,3.48,0.01,1.00,1.32,,,
2018-09-29 18:20,17.1,,,2961,1018.12,300.90,1.91,2.99,0.05,1.00,1.19,,,
2018-09-29 18:30,17.0,,,2961,1018.12,302.90,2.14,3.18,0.12,1.00,1.47,,,
2018-09-29 18:40,16.8,,,2961,1018.18,290.10,2.88,3.65,0.24,1.00,2.05,,,
2018-09-29 18:50,16.2,,,2961,1018.24,285.20,2.87,4.16,0.79,1.00,2.18,,,
2018-09-29 19:00,16.3,,,2959,1018.24,305.60,3.64,4.59,1.17,1.00,3.08,,,
2018-09-29 19:10,16.6,,,2960,1018.36,297.30,3.54,4.85,1.48,1.00,3.02,,,
2018-09-29 19:20,16.6,,,2951,1018.43,308.00,4.17,5.09,1.34,1.00,3.23,,,
2018-09-29 19:30,17.0,,,2961,1018.43,298.00,4.67,5.46,2.12,1.00,3.95,,,
2018-09-29 19:40,16.9,,,2961,1018.49,302.10,4.98,5.90,2.34,1.00,4.03,,,
2018-09-29 19:50,16.9,,,2961,1018.61,302.60,4.17,5.15,1.68,1.00,3.51,,,
2018-09-29 20:00,17.0,,,2961,1018.67,300.20,4.35,5.39,2.09,1.00,3.71,,,
2018-09-29 20:10,16.9,,,2960,1018.73,309.60,4.02,4.82,1.53,1.00,3.34,,,
2018-09-29 20:20,16.4,,,2961,1018.92,324.60,3.91,4.96,1.08,1.00,3.05,,,
2018-09-29 20:30,16.4,,,2961,1018.98,321.00,3.87,4.78,1.03,1.00,2.84,,,
2018-09-29 20:40,16.4,,,2961,1019.10,327.40,3.09,3.80,1.07,1.00,2.55,,,
2018-09-29 20:50,16.5,,,2961,1019.16,321.10,3.67,4.22,1.37,1.00,2.76,,,
2018-09-29 21:00,16.5,,,2961,1019.22,331.90,4.87,5.56,2.19,1.00,4.12,,,
2018-09-29 21:10,16.4,,,2960,1019.28,318.90,4.31,5.28,2.35,1.00,3.78,,,
2018-09-29 21:20,16.4,,,2961,1019.47,322.40,4.63,5.02,2.24,1.00,3.83,,,
2018-09-29 21:30,16.4,,,2961,1019.59,321.60,3.91,4.56,1.65,1.00,3.33,,,
2018-09-29 21:40,16.5,,,2916,1019.71,348.23,3.41,4.31,1.52,1.00,2.86,,,
2018-09-29 21:50,15.9,,,2961,1019.84,353.10,3.68,4.26,1.44,1.00,2.84,,,
2018-09-29 22:00,16.4,,,2954,1019.96,348.81,4.89,5.77,2.26,1.00,3.97,,,
2018-09-29 22:10,16.0,,,2960,1020.08,353.46,3.64,4.24,1.23,1.00,2.90,,,
2018-09-29 22:20,15.6,,,2961,1020.33,353.15,3.17,3.88,1.45,1.00,2.66,,,
2018-09-29 22:30,15.4,,,2961,1020.33,346.05,3.52,4.33,1.69,1.00,2.92,,,
2018-09-29 22:40,15.5,,,2961,1020.45,346.74,3.69,4.71,1.77,1.00,3.25,,,
2018-09-29 22:50,15.4,,,2961,1020.57,346.37,3.42,3.86,0.85,1.00,2.58,,,
2018-09-29 23:00,15.3,,,2961,1020.70,351.07,3.24,3.94,1.24,1.00,2.71,,,
2018-09-29 23:10,15.5,,,2961,1020.82,0.51,2.97,3.65,1.25,1.00,2.49,,,
2018-09-29 23:20,15.5,,,2961,1020.88,1.92,2.65,3.39,0.70,1.00,2.20,,,
2018-09-29 23:30,15.4,,,2961,1020.94,5.58,2.09,2.73,0.87,1.00,1.73,,,
2018-09-29 23:40,15.1,,,2961,1021.00,24.44,1.73,2.56,0.13,1.00,1.40,,,
2018-09-29 23:50,15.1,,,2961,1021.13,4.33,1.79,2.40,0.22,1.00,1.26,,,
2018-09-30 00:00,15.2,,,2961,1021.19,343.40,2.32,2.73,0.63,1.00,1.74,,,
2018-09-30 00:10,15.1,,,2961,1021.25,342.20,2.35,2.92,0.56,1.00,1.88,,,
2018-09-30 00:20,14.9,,,2961,1021.37,332.10,2.08,2.56,0.43,1.00,1.44,,,
2018-09-30 00:30,14.9,,,2961,1021.56,340.20,2.40,2.93,0.60,1.00,1.83,,,
2018-09-30 00:40,14.9,,,2961,1021.74,345.11,2.25,2.86,0.51,1.00,1.60,,,
2018-09-30 00:50,14.7,,,2961,1021.80,10.04,1.86,2.38,0.20,1.00,1.30,,,
2018-09-30 01:00,14.8,,,2961,1021.92,339.00,1.98,2.58,0.29,1.00,1.44,,,
2018-09-30 01:10,14.9,,,2961,1021.92,358.09,1.73,2.36,0.27,1.00,1.26,,,
2018-09-30 01:20,14.6,,,2961,1021.99,16.20,1.59,2.49,0.08,1.00,1.09,,,
2018-09-30 01:30,14.7,,,2961,1021.99,340.50,1.17,1.68,0.03,1.00,0.75,,,
2018-09-30 01:40,14.5,,,2961,1021.92,180.10,0.71,1.41,0.04,1.00,0.44,,,
2018-09-30 01:50,14.4,,,2961,1021.92,101.90,0.82,1.51,0.03,1.00,0.44,,,
2018-09-30 02:00,14.3,,,2961,1021.86,111.10,0.88,1.36,0.04,1.00,0.50,,,
2018-09-30 02:10,14.3,,,2961,1021.80,63.60,0.80,1.22,0.00,1.00,0.41,,,
2018-09-30 02:20,14.4,,,2961,1021.86,45.50,1.03,1.49,0.02,1.00,0.47,,,
2018-09-30 02:30,14.3,,,2961,1021.86,223.00,0.73,1.21,0.01,1.00,0.46,,,
2018-09-30 02:40,14.3,,,2961,1022.05,298.60,1.12,1.69,0.05,1.00,0.62,,,
2018-09-30 02:50,14.3,,,2961,1022.17,237.30,0.93,1.47,0.01,1.00,0.54,,,
2018-09-30 03:00,14.3,,,2961,1022.17,178.60,1.59,2.25,0.23,1.00,1.08,,,
2018-09-30 03:10,14.4,,,2961,1022.05,219.70,1.07,1.75,0.05,1.00,0.77,,,
2018-09-30 03:20,14.5,,,2961,1021.99,194.30,1.40,1.92,0.07,1.00,0.95,,,
2018-09-30 03:30,14.2,,,2961,1021.92,168.00,1.37,1.95,0.25,1.00,1.05,,,
2018-09-30 03:40,14.1,,,2961,1021.99,185.90,1.23,1.57,0.04,1.00,0.76,,,
2018-09-30 03:50,14.0,,,2961,1022.05,263.10,0.97,1.81,0.03,1.00,0.55,,,
2018-09-30 04:00,14.0,,,2961,1021.99,300.80,0.78,1.24,0.02,1.00,0.43,,,
2018-09-30 04:10,14.1,,,2962,1021.86,187.30,1.06,1.62,0.03,1.00,0.63,,,
2018-09-30 04:20,14.1,,,2962,1021.92,201.60,2.40,2.78,0.63,1.00,1.73,,,
2018-09-30 04:30,14.1,,,2962,1021.99,188.60,1.40,1.87,0.46,1.00,1.17,,,
2018-09-30 04:40,14.1,,,2961,1022.05,222.30,2.16,2.67,0.49,1.00,1.68,,,
2018-09-30 04:50,14.1,,,2962,1022.17,234.50,1.94,2.66,0.58,1.00,1.56,,,
2018-09-30 05:00,14.1,,,2961,1022.35,249.00,1.74,2.37,0.39,1.00,1.28,,,
2018-09-30 05:10,14.0,,,2961,1022.42,257.60,1.71,2.17,0.11,1.00,1.05,,,
2018-09-30 05:20,14.0,,,2962,1022.42,212.50,1.42,2.12,0.35,1.00,1.14,,,
2018-09-30 05:30,13.9,,,2962,1022.35,251.50,1.50,2.18,0.39,1.00,1.21,,,
2018-09-30 05:40,13.9,,,2962,1022.48,257.80,1.46,2.30,0.14,1.00,0.94,,,
2018-09-30 05:50,13.9,,,2962,1022.54,257.40,1.27,1.70,0.04,1.00,0.77,,,
2018-09-30 06:00,13.9,,,2962,1022.48,226.50,1.15,1.64,0.06,1.00,0.69,,,
2018-09-30 06:10,13.9,,,2961,1022.42,257.90,1.39,2.14,0.03,1.00,0.76,,,
2018-09-30 06:20,13.9,,,2962,1022.35,274.30,1.71,2.48,0.02,1.00,0.75,,,
2018-09-30 06:30,14.0,,,2962,1022.48,296.70,1.62,2.05,0.00,1.00,1.01,,,
2018-09-30 06:40,14.0,,,2962,1022.48,295.00,1.36,2.08,0.01,1.00,0.71,,,
2018-09-30 06:50,13.9,,,2962,1022.48,311.30,1.34,1.82,0.05,1.00,0.86,,,
2018-09-30 07:00,13.9,,,2962,1022.42,332.30,2.15,2.55,0.29,1.00,1.44,,,
2018-09-30 07:10,13.8,,,2961,1022.42,338.10,2.16,2.78,0.46,1.00,1.49,,,
2018-09-30 07:20,13.8,,,2962,1022.48,356.34,2.62,3.02,0.76,1.00,1.91,,,
2018-09-30 07:30,13.8,,,2962,1022.54,11.71,2.83,3.15,1.22,1.00,2.22,,,
2018-09-30 07:40,13.8,,,2962,1022.60,24.09,2.61,2.91,0.87,1.00,2.04,,,
2018-09-30 07:50,13.7,,,2962,1022.72,22.83,2.24,2.79,0.95,1.00,1.73,,,
2018-09-30 08:00,13.7,,,2962,1022.91,357.28,2.02,2.52,0.55,1.00,1.41,,,
2018-09-30 08:10,13.7,,,2961,1022.91,1.58,1.87,2.34,0.56,1.00,1.44,,,
2018-09-30 08:20,13.7,,,2962,1023.03,357.96,2.52,3.06,1.09,1.00,1.85,,,
2018-09-30 08:30,13.6,,,2962,1023.03,16.16,2.77,3.40,1.35,1.00,2.22,,,
2018-09-30 08:40,13.6,,,2962,1023.09,25.00,2.51,3.10,1.25,1.00,2.16,,,
2018-09-30 08:50,13.6,,,2962,1023.15,33.64,2.09,2.76,0.78,1.00,1.68,,,
2018-09-30 09:00,13.6,,,2962,1023.28,14.10,1.81,2.21,0.54,1.00,1.25,,,
2018-09-30 09:10,13.6,,,2961,1023.28,18.13,1.66,2.37,0.32,1.00,1.23,,,
2018-09-30 09:20,13.6,,,2962,1023.46,0.65,2.14,2.79,0.79,1.00,1.72,,,
2018-09-30 09:30,13.7,,,2962,1023.64,11.79,2.40,2.77,0.98,1.00,2.03,,,
2018-09-30 09:40,13.7,,,2962,1023.71,13.19,2.60,2.99,1.34,1.00,2.19,,,
2018-09-30 09:50,13.7,,,2962,1023.77,13.08,2.84,3.08,1.32,1.00,2.26,,,
2018-09-30 10:00,13.7,,,2962,1023.77,27.62,2.50,2.94,0.94,1.00,2.05,,,
2018-09-30 10:10,13.8,,,2961,1023.77,36.75,2.27,3.03,0.80,1.00,1.86,,,
2018-09-30 10:20,13.7,,,2962,1024.01,25.24,3.52,3.80,1.83,1.00,2.95,,,
2018-09-30 10:30,13.8,,,2962,1024.08,22.88,2.98,3.43,1.70,1.00,2.60,,,
2018-09-30 10:40,13.9,,,2892,1024.26,4.04,3.27,3.91,1.85,1.00,2.69,,,
2018-09-30 10:50,13.9,,,2962,1024.32,4.78,2.80,3.43,1.55,1.00,2.36,,,
2018-09-30 11:00,14.1,,,2962,1024.32,357.56,3.23,3.50,1.64,1.00,2.55,,,
2018-09-30 11:10,14.2,,,2961,1024.26,10.48,3.40,3.72,1.95,1.00,2.96,,,
2018-09-30 11:20,14.3,,,2962,1024.26,12.29,3.26,3.76,2.06,1.00,2.88,,,
2018-09-30 11:30,14.3,,,2923,1024.32,8.50,3.41,3.82,1.88,1.00,2.84,,,
2018-09-30 11:40,14.4,,,2950,1024.51,354.57,3.52,4.23,1.89,1.00,2.91,,,
2018-09-30 11:50,14.3,,,2962,1024.51,359.50,3.74,4.67,1.70,1.00,3.10,,,
2018-09-30 12:00,14.1,,,2962,1024.63,359.91,3.90,4.55,2.16,1.00,3.40,,,
2018-09-30 12:20,13.9,,,2962,1024.63,12.39,3.20,3.91,1.70,1.00,2.80,,,
2018-09-30 12:30,14.1,,,2955,1024.75,10.60,3.41,4.07,1.37,1.00,2.69,,,
2018-09-30 12:40,14.0,,,2962,1024.87,4.59,3.52,4.09,0.00,1.00,2.77,,,
2018-09-30 12:50,13.9,,,2961,1025.00,359.76,3.15,3.71,1.73,1.00,2.65,,,
2018-09-30 13:00,14.0,,,2961,1025.00,7.80,3.06,3.50,1.76,1.00,2.58,,,
2018-09-30 13:10,14.2,,,2895,1025.06,11.58,3.14,3.53,1.68,1.00,2.59,,,
2018-09-30 13:20,14.2,,,2961,1025.24,11.00,2.86,3.14,1.49,1.00,2.33,,,
2018-09-30 13:30,14.3,,,2961,1025.18,22.13,2.39,2.90,1.37,1.00,2.07,,,
2018-09-30 13:40,14.0,,,2961,1025.12,8.47,2.20,2.63,0.95,1.00,1.81,,,
2018-09-30 13:50,14.2,,,2962,1025.24,352.67,2.20,2.51,0.94,1.00,1.72,,,
2018-09-30 14:00,14.2,,,2961,1025.37,327.80,2.77,3.40,1.19,1.00,2.27,,,
2018-09-30 14:10,14.2,,,2961,1025.24,328.50,2.77,3.43,1.03,1.00,2.25,,,
2018-09-30 14:20,14.1,,,2961,1025.12,339.80,3.59,4.06,1.66,1.00,2.59,,,
2018-09-30 14:30,14.0,,,2961,1025.30,329.40,4.01,4.81,1.94,1.00,3.44,,,
2018-09-30 14:40,13.9,,,2961,1025.24,339.50,3.65,4.32,1.66,1.00,2.91,,,
2018-09-30 14:50,14.0,,,2961,1024.75,13.22,3.24,3.76,1.49,1.00,2.59,,,
2018-09-30 15:00,14.1,,,2961,1024.57,18.00,3.20,3.83,1.53,1.00,2.55,,,
2018-09-30 15:10,14.5,,,2961,1024.94,348.45,3.16,3.91,1.76,1.00,2.66,,,
2018-09-30 15:20,14.5,,,2961,1024.81,346.65,3.09,3.67,1.22,1.00,2.37,,,
2018-09-30 15:30,14.5,,,2961,1024.69,1.58,2.43,2.84,1.23,1.00,2.03,,,
2018-09-30 15:40,14.8,,,2961,1024.69,350.50,2.04,2.72,0.83,1.00,1.65,,,
2018-09-30 15:50,14.6,,,2961,1024.57,353.42,2.14,2.76,1.01,1.00,1.80,,,
2018-09-30 16:00,15.2,,,2961,1024.57,347.89,2.36,2.93,0.79,1.00,1.90,,,
2018-09-30 16:10,14.6,,,2961,1024.32,9.17,1.91,2.43,1.00,1.00,1.66,,,
2018-09-30 16:20,14.7,,,2961,1024.44,0.44,1.98,2.45,0.72,1.00,1.52,,,
2018-09-30 16:30,14.8,,,2961,1024.26,0.66,1.69,2.08,0.30,1.00,1.25,,,
2018-09-30 16:40,15.3,,,2961,1024.14,356.98,1.67,2.29,0.00,1.00,1.21,,,
2018-09-30 16:50,15.5,,,2961,1024.01,354.79,1.40,1.94,0.11,1.00,1.09,,,
2018-09-30 17:00,15.6,,,2961,1023.89,12.78,1.28,1.77,0.08,1.00,0.97,,,
2018-09-30 17:10,15.2,,,2960,1023.64,4.72,1.30,1.69,0.14,1.00,0.95,,,
2018-09-30 17:20,15.6,,,2961,1023.83,348.21,1.32,1.94,0.02,1.00,0.90,,,
2018-09-30 17:30,16.1,,,2961,1023.46,28.37,1.12,1.49,0.02,1.00,0.59,,,
2018-09-30 17:40,16.5,,,2961,1023.34,89.60,1.01,1.35,0.00,1.00,0.45,,,
2018-09-30 17:50,17.0,,,2961,1023.34,338.00,1.16,1.39,0.02,1.00,0.59,,,
2018-09-30 18:00,16.6,,,2961,1023.46,277.60,1.58,2.32,0.05,1.00,0.91,,,
2018-09-30 18:10,16.3,,,2960,1023.34,253.90,1.40,1.83,0.04,1.00,0.75,,,
2018-09-30 18:20,16.5,,,2961,1023.40,232.70,1.53,1.68,0.10,1.00,0.86,,,
2018-09-30 18:30,16.6,,,2961,1023.34,190.20,1.53,1.85,0.04,1.00,0.94,,,
2018-09-30 18:40,16.1,,,2960,1023.40,225.40,2.04,2.51,0.22,1.00,1.32,,,
2018-09-30 18:50,15.5,,,2961,1023.21,221.70,2.38,2.72,0.77,1.00,1.88,,,
2018-09-30 19:00,15.6,,,2960,1022.97,218.00,2.71,3.04,1.02,1.00,2.14,,,
2018-09-30 19:10,15.4,,,2960,1022.91,228.90,3.43,3.82,0.00,1.00,2.45,,,
2018-09-30 19:20,15.4,,,2961,1023.09,240.90,3.65,4.09,1.78,1.00,2.97,,,
2018-09-30 19:30,15.4,,,2960,1022.97,226.30,3.93,4.38,2.19,1.00,3.34,,,
2018-09-30 19:40,15.3,,,2960,1023.03,234.60,4.32,4.92,2.21,1.00,3.38,,,
2018-09-30 19:50,15.2,,,2960,1023.15,239.10,5.00,5.19,2.71,1.00,3.82,,,
2018-09-30 20:00,15.3,,,2960,1023.03,238.20,4.99,5.47,3.18,1.00,4.34,,,
2018-09-30 20:10,15.5,,,2960,1023.03,237.20,4.93,5.69,2.33,1.00,4.04,,,
2018-09-30 20:20,15.4,,,2960,1023.09,240.60,5.43,5.76,2.91,1.00,4.29,,,
2018-09-30 20:30,15.3,,,2960,1023.09,234.00,5.30,5.61,2.76,1.00,3.89,,,
2018-09-30 20:40,15.2,,,2960,1022.97,224.80,4.79,5.20,2.75,1.00,4.10,,,
2018-09-30 20:50,15.2,,,2960,1022.91,219.50,5.51,5.94,3.09,1.00,4.27,,,
2018-09-30 21:00,15.1,,,2960,1022.97,213.20,5.10,5.66,3.06,1.00,4.29,,,
2018-09-30 21:10,15.1,,,2960,1022.97,221.60,5.93,6.49,3.04,1.00,4.91,,,
2018-09-30 21:20,15.2,,,2961,1023.03,226.10,6.65,7.06,3.81,1.00,5.59,,,
2018-09-30 21:30,15.1,,,2961,1023.15,220.10,5.89,6.56,3.38,1.00,5.00,,,
2018-09-30 21:40,15.1,,,2961,1023.28,217.30,5.47,6.02,2.51,1.00,4.50,,,
2018-09-30 21:50,15.0,,,2938,1023.28,216.30,6.29,7.32,3.40,1.00,5.22,,,
2018-09-30 22:00,14.9,,,2936,1023.34,216.10,6.57,7.43,0.78,1.00,5.36,,,
2018-09-30 22:10,14.8,,,2932,1023.40,214.50,6.20,7.45,3.54,1.00,5.18,,,
2018-09-30 22:20,14.8,,,2961,1023.46,213.40,6.00,7.41,3.28,1.00,5.07,,,
2018-09-30 22:30,14.7,,,2961,1023.40,208.60,5.33,6.39,2.79,1.00,4.54,,,
2018-09-30 22:40,14.7,,,2961,1023.46,209.60,5.24,6.28,2.24,1.00,4.42,,,
2018-09-30 22:50,14.7,,,2961,1023.52,205.50,4.60,5.59,2.75,1.00,4.04,,,
2018-09-30 23:00,14.6,,,2961,1023.58,202.40,4.95,5.94,2.68,1.00,4.25,,,
2018-09-30 23:10,14.7,,,2961,1023.58,205.90,5.15,5.85,2.42,1.00,4.19,,,
2018-09-30 23:20,14.7,,,2961,1023.71,206.00,5.25,6.25,2.80,1.00,4.42,,,
2018-09-30 23:30,14.7,,,2961,1023.77,209.50,5.72,6.83,3.26,1.00,4.87,,,
2018-09-30 23:40,14.7,,,2961,1023.83,208.60,5.79,6.98,2.47,1.00,4.86,,,
2018-09-30 23:50,14.8,,,2962,1023.95,207.20,5.65,6.58,3.23,1.00,4.81,,,
2018-10-01 00:00,14.8,,,2961,1024.08,212.20,5.94,6.78,2.89,1.00,4.85,,,
2018-10-01 00:10,14.8,,,2961,1024.08,203.50,5.56,6.52,3.08,1.00,4.66,,,
2018-10-01 00:20,14.8,,,2961,1024.20,208.20,6.08,7.21,2.28,1.00,5.05,,,
2018-10-01 00:30,14.9,,,2961,1024.14,214.10,6.73,7.52,3.44,1.00,5.66,,,
2018-10-01 00:40,14.9,,,2961,1024.14,211.70,6.38,7.44,3.58,1.00,5.51,,,
2018-10-01 00:50,14.9,,,2961,1024.08,207.40,6.47,7.52,3.32,1.00,5.64,,,
2018-10-01 01:00,14.9,,,2961,1024.08,208.50,6.22,6.84,3.14,1.00,5.07,,,
2018-10-01 01:10,14.8,,,2961,1024.08,211.00,5.55,6.50,2.91,1.00,4.77,,,
2018-10-01 01:20,14.9,,,2961,1024.14,207.30,5.57,6.58,3.08,1.00,4.93,,,
2018-10-01 01:30,14.9,,,2961,1024.08,207.50,5.58,6.73,2.70,1.00,4.88,,,
2018-10-01 01:40,14.9,,,2961,1024.08,212.50,5.33,6.77,2.97,1.00,4.67,,,
2018-10-01 01:50,14.8,,,2961,1024.20,216.60,5.57,6.60,2.76,1.00,4.77,,,
2018-10-01 02:00,14.8,,,2961,1024.32,223.80,5.44,6.62,3.09,1.00,4.78,,,
2018-10-01 02:10,14.8,,,2961,1024.38,225.70,5.83,6.37,2.62,1.00,4.71,,,
2018-10-01 02:20,14.8,,,2961,1024.38,227.60,5.96,6.92,2.78,1.00,4.93,,,
2018-10-01 02:30,14.7,,,2961,1024.32,225.50,5.19,6.48,3.16,1.00,4.57,,,
2018-10-01 02:40,14.6,,,2961,1024.26,225.10,5.11,6.06,2.82,1.00,4.54,,,
2018-10-01 02:50,14.6,,,2961,1024.14,221.40,5.09,5.80,2.47,1.00,4.31,,,
2018-10-01 03:00,14.6,,,2961,1024.08,220.10,5.32,5.94,2.85,1.00,4.35,,,
2018-10-01 03:10,14.6,,,2961,1024.14,223.60,4.76,5.52,2.67,1.00,4.12,,,
2018-10-01 03:20,14.6,,,2961,1024.44,229.40,4.37,5.65,2.17,1.00,3.82,,,
2018-10-01 03:30,14.6,,,2961,1024.51,231.20,4.24,5.49,2.01,1.00,3.54,,,
2018-10-01 03:40,14.6,,,2961,1024.51,228.00,3.43,4.03,1.46,1.00,2.88,,,
2018-10-01 03:50,14.5,,,2961,1024.63,229.60,3.45,4.57,1.41,1.00,2.87,,,
2018-10-01 04:00,14.5,,,2961,1024.57,232.10,3.61,4.74,1.32,1.00,2.82,,,
2018-10-01 04:10,14.4,,,2961,1024.38,226.50,3.39,4.31,1.39,1.00,2.68,,,
2018-10-01 04:20,14.5,,,2961,1024.38,241.60,3.70,4.31,0.82,1.00,2.79,,,
2018-10-01 04:30,14.6,,,2961,1024.51,260.10,3.79,4.66,1.18,1.00,3.01,,,
2018-10-01 04:40,14.6,,,2961,1024.75,265.10,3.48,4.19,0.66,1.00,2.93,,,
2018-10-01 04:50,14.5,,,2961,1024.69,268.30,3.00,3.72,0.71,1.00,2.10,,,
2018-10-01 05:00,14.4,,,2961,1024.51,295.80,2.43,2.89,0.15,1.00,1.71,,,
2018-10-01 05:10,14.5,,,2961,1024.44,286.70,1.93,2.96,0.25,1.00,1.43,,,
2018-10-01 05:20,14.5,,,2961,1024.38,282.20,1.72,2.68,0.14,1.00,1.18,,,
2018-10-01 05:30,14.5,,,2961,1024.32,268.20,1.64,2.57,0.07,1.00,1.07,,,
2018-10-01 05:40,14.5,,,2961,1024.26,233.30,1.67,2.27,0.06,1.00,1.07,,,
2018-10-01 05:50,14.4,,,2962,1024.26,278.90,0.97,1.60,0.04,1.00,0.59,,,
2018-10-01 06:00,14.3,,,2961,1024.14,313.00,1.08,1.55,0.02,1.00,0.58,,,
2018-10-01 06:10,14.4,,,2961,1024.14,223.60,0.81,1.46,0.01,1.00,0.55,,,
2018-10-01 06:20,14.4,,,2962,1024.08,205.50,0.97,1.70,0.01,1.00,0.53,,,
2018-10-01 06:30,14.5,,,2962,1023.89,108.80,1.22,1.70,0.03,1.00,0.70,,,
2018-10-01 06:40,14.4,,,2961,1023.95,81.40,1.05,1.95,0.06,1.00,0.67,,,
2018-10-01 06:50,14.3,,,2962,1023.89,23.35,1.32,2.36,0.05,1.00,1.04,,,
2018-10-01 07:00,14.4,,,2961,1023.71,18.01,1.86,2.75,0.23,1.00,1.46,,,
2018-10-01 07:10,14.4,,,2961,1023.58,7.89,2.75,3.59,0.13,1.00,1.72,,,
2018-10-01 07:20,14.3,,,2962,1023.46,20.11,2.80,3.25,1.16,1.00,2.36,,,
2018-10-01 07:30,14.2,,,2962,1023.64,28.28,2.30,2.88,0.49,1.00,1.89,,,
2018-10-01 07:40,14.2,,,2962,1023.58,45.39,2.39,3.17,0.88,1.00,2.08,,,
2018-10-01 07:50,14.2,,,2962,1023.46,67.20,2.97,4.08,0.93,1.00,2.36,,,
2018-10-01 08:00,14.2,,,2962,1023.58,69.60,3.35,3.85,0.60,1.00,2.15,,,